Time,TemperatureF,DewpointF,PressureIn,WindDirection,WindDirectionDegrees,WindSpeedMPH,WindSpeedGustMPH,Humidity,HourlyPrecipIn,Conditions,Clouds,dailyrainin,SoftwareType,DateUTC
2013-07-24 00:04:00,91.8,69.3,29.78,North,355,0.0,1.0,48,0.00,,,0.00,Wunderground v.1.15,2013-07-24 07:04:00,
2013-07-24 00:09:00,91.2,69.4,29.78,SW,230,1.0,2.0,49,0.00,,,0.00,Wunderground v.1.15,2013-07-24 07:09:00,
2013-07-24 00:15:00,90.6,68.8,29.78,East,84,0.0,2.0,49,0.00,,,0.00,Wunderground v.1.15,2013-07-24 07:15:00,
2013-07-24 00:20:00,90.3,69.1,29.78,SE,131,1.0,2.0,50,0.00,,,0.00,Wunderground v.1.15,2013-07-24 07:20:00,
2013-07-24 00:25:00,90.1,69.0,29.78,SSW,205,0.0,0.0,50,0.00,,,0.00,Wunderground v.1.15,2013-07-24 07:25:00,
2013-07-24 00:31:00,89.9,68.8,29.78,SW,217,1.0,1.0,50,0.00,,,0.00,Wunderground v.1.15,2013-07-24 07:31:00,
2013-07-24 00:36:00,89.9,68.2,29.78,SW,221,1.0,1.0,49,0.00,,,0.00,Wunderground v.1.15,2013-07-24 07:36:00,
2013-07-24 00:41:00,89.9,67.6,29.78,SE,135,0.0,0.0,48,0.00,,,0.00,Wunderground v.1.15,2013-07-24 07:41:00,
2013-07-24 00:46:00,89.8,67.5,29.78,SW,215,0.0,1.0,48,0.00,,,0.00,Wunderground v.1.15,2013-07-24 07:46:00,
2013-07-24 00:51:00,90.0,66.4,29.78,East,97,0.0,0.0,46,0.00,,,0.00,Wunderground v.1.15,2013-07-24 07:51:00,
2013-07-24 00:56:00,90.2,66.6,29.78,South,186,0.0,1.0,46,0.00,,,0.00,Wunderground v.1.15,2013-07-24 07:56:00,
2013-07-24 01:01:00,90.3,66.1,29.78,South,180,0.0,2.0,45,0.00,,,0.00,Wunderground v.1.15,2013-07-24 08:01:00,
2013-07-24 01:07:00,90.2,66.0,29.78,South,170,0.0,2.0,45,0.00,,,0.00,Wunderground v.1.15,2013-07-24 08:07:00,
2013-07-24 01:12:00,90.0,65.8,29.78,SE,141,0.0,0.0,45,0.00,,,0.00,Wunderground v.1.15,2013-07-24 08:12:00,
2013-07-24 01:18:00,90.0,65.8,29.78,WNW,298,0.0,1.0,45,0.00,,,0.00,Wunderground v.1.15,2013-07-24 08:18:00,
2013-07-24 01:23:00,90.0,65.8,29.77,West,267,0.0,0.0,45,0.00,,,0.00,Wunderground v.1.15,2013-07-24 08:23:00,
2013-07-24 01:28:00,90.1,65.9,29.78,West,280,0.0,1.0,45,0.00,,,0.00,Wunderground v.1.15,2013-07-24 08:28:00,
2013-07-24 01:33:00,90.0,65.8,29.78,WSW,248,0.0,0.0,45,0.00,,,0.00,Wunderground v.1.15,2013-07-24 08:33:00,
2013-07-24 01:38:00,90.0,65.8,29.78,WNW,295,0.0,0.0,45,0.00,,,0.00,Wunderground v.1.15,2013-07-24 08:38:00,
2013-07-24 01:44:00,90.0,65.8,29.78,WNW,290,0.0,0.0,45,0.00,,,0.00,Wunderground v.1.15,2013-07-24 08:44:00,
2013-07-24 01:49:00,89.8,65.6,29.77,SW,222,0.0,1.0,45,0.00,,,0.00,Wunderground v.1.15,2013-07-24 08:49:00,
2013-07-24 01:55:00,89.7,66.2,29.77,SE,129,0.0,0.0,46,0.00,,,0.00,Wunderground v.1.15,2013-07-24 08:55:00,
2013-07-24 02:00:00,89.5,66.6,29.77,SSW,200,0.0,0.0,47,0.00,,,0.00,Wunderground v.1.15,2013-07-24 09:00:00,
2013-07-24 02:05:00,89.2,66.3,29.77,SSW,201,0.0,0.0,47,0.00,,,0.00,Wunderground v.1.15,2013-07-24 09:05:00,
2013-07-24 02:10:00,89.0,66.2,29.77,SSW,201,0.0,0.0,47,0.00,,,0.00,Wunderground v.1.15,2013-07-24 09:10:00,
2013-07-24 02:15:00,88.8,66.0,29.77,SE,128,0.0,1.0,47,0.00,,,0.00,Wunderground v.1.15,2013-07-24 09:15:00,
2013-07-24 02:20:00,88.7,66.5,29.77,SE,128,0.0,0.0,48,0.00,,,0.00,Wunderground v.1.15,2013-07-24 09:20:00,
2013-07-24 02:25:00,88.5,65.7,29.77,SW,227,0.0,0.0,47,0.00,,,0.00,Wunderground v.1.15,2013-07-24 09:25:00,
2013-07-24 02:30:00,88.4,65.6,29.77,SW,226,0.0,0.0,47,0.00,,,0.00,Wunderground v.1.15,2013-07-24 09:30:00,
2013-07-24 02:35:00,88.0,70.9,29.77,NW,307,1.0,2.0,57,0.00,,,0.00,Wunderground v.1.15,2013-07-24 09:35:00,
2013-07-24 02:40:00,84.8,71.3,29.77,NW,309,0.0,0.0,64,0.00,,,0.00,Wunderground v.1.15,2013-07-24 09:40:00,
2013-07-24 02:45:00,82.8,71.2,29.77,WNW,293,0.0,2.0,68,0.00,,,0.00,Wunderground v.1.15,2013-07-24 09:45:00,
2013-07-24 02:50:00,82.1,70.9,29.77,WNW,293,0.0,0.0,69,0.00,,,0.00,Wunderground v.1.15,2013-07-24 09:50:00,
2013-07-24 02:55:00,81.9,70.7,29.77,WNW,287,0.0,1.0,69,0.00,,,0.00,Wunderground v.1.15,2013-07-24 09:55:00,
2013-07-24 03:00:00,81.9,70.7,29.77,WNW,287,0.0,0.0,69,0.00,,,0.00,Wunderground v.1.15,2013-07-24 10:00:00,
2013-07-24 03:06:00,81.7,71.0,29.77,WNW,286,0.0,1.0,70,0.00,,,0.00,Wunderground v.1.15,2013-07-24 10:06:00,
2013-07-24 03:11:00,81.6,70.9,29.77,WNW,284,0.0,0.0,70,0.00,,,0.00,Wunderground v.1.15,2013-07-24 10:11:00,
2013-07-24 03:15:00,81.4,70.7,29.77,WNW,284,0.0,0.0,70,0.00,,,0.00,Wunderground v.1.15,2013-07-24 10:15:00,
2013-07-24 03:21:00,81.3,70.6,29.77,WNW,284,0.0,0.0,70,0.00,,,0.00,Wunderground v.1.15,2013-07-24 10:21:00,
2013-07-24 03:26:00,81.5,70.8,29.77,WNW,284,0.0,0.0,70,0.00,,,0.00,Wunderground v.1.15,2013-07-24 10:26:00,
2013-07-24 03:31:00,81.7,70.5,29.77,WNW,284,0.0,0.0,69,0.00,,,0.00,Wunderground v.1.15,2013-07-24 10:31:00,
2013-07-24 03:36:00,81.9,70.3,29.77,WNW,284,0.0,0.0,68,0.00,,,0.00,Wunderground v.1.15,2013-07-24 10:36:00,
2013-07-24 03:41:00,82.1,70.9,29.77,WNW,284,0.0,0.0,69,0.00,,,0.00,Wunderground v.1.15,2013-07-24 10:41:00,
2013-07-24 03:46:00,82.2,68.3,29.77,WNW,284,0.0,0.0,63,0.00,,,0.00,Wunderground v.1.15,2013-07-24 10:46:00,
2013-07-24 03:51:00,82.7,67.9,29.77,WNW,284,0.0,0.0,61,0.00,,,0.00,Wunderground v.1.15,2013-07-24 10:51:00,
2013-07-24 03:56:00,83.5,66.7,29.77,WNW,284,0.0,1.0,57,0.00,,,0.00,Wunderground v.1.15,2013-07-24 10:56:00,
2013-07-24 04:01:00,84.5,66.6,29.77,WNW,284,0.0,0.0,55,0.00,,,0.00,Wunderground v.1.15,2013-07-24 11:01:00,
2013-07-24 04:06:00,85.1,66.6,29.77,WNW,291,0.0,0.0,54,0.00,,,0.00,Wunderground v.1.15,2013-07-24 11:06:00,
2013-07-24 04:11:00,85.7,66.0,29.77,WNW,290,0.0,0.0,52,0.00,,,0.00,Wunderground v.1.15,2013-07-24 11:11:00,
2013-07-24 04:16:00,86.1,66.4,29.77,NE,53,0.0,1.0,52,0.00,,,0.00,Wunderground v.1.15,2013-07-24 11:16:00,
2013-07-24 04:21:00,86.3,66.0,29.77,NE,42,0.0,1.0,51,0.00,,,0.00,Wunderground v.1.15,2013-07-24 11:21:00,
2013-07-24 04:26:00,86.5,66.2,29.77,NNW,338,0.0,1.0,51,0.00,,,0.00,Wunderground v.1.15,2013-07-24 11:26:00,
2013-07-24 04:31:00,86.6,65.7,29.77,NE,43,0.0,0.0,50,0.00,,,0.00,Wunderground v.1.15,2013-07-24 11:31:00,
2013-07-24 04:36:00,86.8,65.3,29.77,North,353,0.0,1.0,49,0.00,,,0.00,Wunderground v.1.15,2013-07-24 11:36:00,
2013-07-24 04:41:00,86.8,65.3,29.77,NE,40,0.0,1.0,49,0.00,,,0.00,Wunderground v.1.15,2013-07-24 11:41:00,
2013-07-24 04:46:00,86.9,65.4,29.77,ESE,103,0.0,1.0,49,0.00,,,0.00,Wunderground v.1.15,2013-07-24 11:46:00,
2013-07-24 04:51:00,86.8,65.9,29.77,ESE,103,0.0,0.0,50,0.00,,,0.00,Wunderground v.1.15,2013-07-24 11:51:00,
2013-07-24 04:56:00,86.8,65.3,29.77,East,96,0.0,1.0,49,0.00,,,0.00,Wunderground v.1.15,2013-07-24 11:56:00,
2013-07-24 05:01:00,86.7,65.3,29.77,NW,314,0.0,0.0,49,0.00,,,0.00,Wunderground v.1.15,2013-07-24 12:01:00,
2013-07-24 05:06:00,86.6,65.7,29.77,NNW,338,0.0,0.0,50,0.00,,,0.00,Wunderground v.1.15,2013-07-24 12:06:00,
2013-07-24 05:11:00,86.5,65.1,29.77,NNW,342,0.0,0.0,49,0.00,,,0.00,Wunderground v.1.15,2013-07-24 12:11:00,
2013-07-24 05:16:00,86.3,65.5,29.77,NNW,342,0.0,1.0,50,0.00,,,0.00,Wunderground v.1.15,2013-07-24 12:16:00,
2013-07-24 05:21:00,86.2,65.4,29.77,NNW,343,0.0,1.0,50,0.00,,,0.00,Wunderground v.1.15,2013-07-24 12:21:00,
2013-07-24 05:26:00,86.1,65.3,29.77,NNW,342,0.0,1.0,50,0.00,,,0.00,Wunderground v.1.15,2013-07-24 12:26:00,
2013-07-24 05:31:00,86.0,65.2,29.77,NNW,343,0.0,0.0,50,0.00,,,0.00,Wunderground v.1.15,2013-07-24 12:31:00,
2013-07-24 05:36:00,85.8,65.6,29.77,NNW,343,0.0,0.0,51,0.00,,,0.00,Wunderground v.1.15,2013-07-24 12:36:00,
2013-07-24 05:41:00,85.7,65.5,29.78,NNW,343,0.0,0.0,51,0.00,,,0.00,Wunderground v.1.15,2013-07-24 12:41:00,
2013-07-24 05:46:00,85.7,65.5,29.78,NNW,335,0.0,0.0,51,0.00,,,0.00,Wunderground v.1.15,2013-07-24 12:46:00,
2013-07-24 05:51:00,85.6,65.4,29.78,NNW,335,0.0,0.0,51,0.00,,,0.00,Wunderground v.1.15,2013-07-24 12:51:00,
2013-07-24 05:56:00,85.6,65.4,29.78,NNW,335,0.0,0.0,51,0.00,,,0.00,Wunderground v.1.15,2013-07-24 12:56:00,
2013-07-24 06:01:00,85.4,68.9,29.78,NNW,335,0.0,0.0,58,0.00,,,0.00,Wunderground v.1.15,2013-07-24 13:01:00,
2013-07-24 06:06:00,83.8,70.8,29.78,NNW,335,0.0,1.0,65,0.00,,,0.00,Wunderground v.1.15,2013-07-24 13:06:00,
2013-07-24 06:12:00,82.1,71.3,29.78,WNW,291,0.0,1.0,70,0.00,,,0.00,Wunderground v.1.15,2013-07-24 13:12:00,
2013-07-24 06:17:00,81.2,71.3,29.78,WNW,287,2.0,2.0,72,0.00,,,0.00,Wunderground v.1.15,2013-07-24 13:17:00,
2013-07-24 06:22:00,80.6,71.1,29.78,WNW,289,2.0,2.0,73,0.00,,,0.00,Wunderground v.1.15,2013-07-24 13:22:00,
2013-07-24 06:27:00,80.3,71.3,29.78,West,281,2.0,3.0,74,0.00,,,0.00,Wunderground v.1.15,2013-07-24 13:27:00,
2013-07-24 06:32:00,80.5,71.4,29.78,West,263,1.0,2.0,74,0.00,,,0.00,Wunderground v.1.15,2013-07-24 13:32:00,
2013-07-24 06:37:00,81.0,70.7,29.78,WSW,256,0.0,2.0,71,0.00,,,0.00,Wunderground v.1.15,2013-07-24 13:37:00,
2013-07-24 06:42:00,81.7,70.1,29.78,West,266,1.0,2.0,68,0.00,,,0.00,Wunderground v.1.15,2013-07-24 13:42:00,
2013-07-24 06:47:00,82.4,70.3,29.78,WSW,240,1.0,2.0,67,0.00,,,0.00,Wunderground v.1.15,2013-07-24 13:47:00,
2013-07-24 06:52:00,82.9,69.9,29.78,SW,236,1.0,1.0,65,0.00,,,0.00,Wunderground v.1.15,2013-07-24 13:52:00,
2013-07-24 06:57:00,83.7,69.8,29.79,SW,236,0.0,1.0,63,0.00,,,0.00,Wunderground v.1.15,2013-07-24 13:57:00,
2013-07-24 07:02:00,83.9,70.4,29.79,West,276,0.0,1.0,64,0.00,,,0.00,Wunderground v.1.15,2013-07-24 14:02:00,
2013-07-24 07:07:00,83.9,72.2,29.79,West,267,1.0,1.0,68,0.00,,,0.00,Wunderground v.1.15,2013-07-24 14:07:00,
2013-07-24 07:12:00,83.7,73.7,29.79,WNW,293,1.0,1.0,72,0.00,,,0.00,Wunderground v.1.15,2013-07-24 14:12:00,
2013-07-24 07:17:00,83.7,74.5,29.79,WNW,293,0.0,1.0,74,0.00,,,0.00,Wunderground v.1.15,2013-07-24 14:17:00,
2013-07-24 07:22:00,83.8,74.2,29.79,WNW,291,0.0,1.0,73,0.00,,,0.00,Wunderground v.1.15,2013-07-24 14:22:00,
2013-07-24 07:27:00,84.1,74.1,29.79,WNW,293,0.0,1.0,72,0.00,,,0.00,Wunderground v.1.15,2013-07-24 14:27:00,
2013-07-24 07:32:00,84.5,72.8,29.79,WNW,285,0.0,1.0,68,0.00,,,0.00,Wunderground v.1.15,2013-07-24 14:32:00,
2013-07-24 07:37:00,85.0,73.3,29.79,WNW,300,1.0,2.0,68,0.00,,,0.00,Wunderground v.1.15,2013-07-24 14:37:00,
2013-07-24 07:42:00,85.5,74.2,29.80,West,276,0.0,1.0,69,0.00,,,0.00,Wunderground v.1.15,2013-07-24 14:42:00,
2013-07-24 07:47:00,86.1,73.9,29.80,West,275,0.0,1.0,67,0.00,,,0.00,Wunderground v.1.15,2013-07-24 14:47:00,
2013-07-24 07:52:00,86.7,72.6,29.80,West,271,1.0,1.0,63,0.00,,,0.00,Wunderground v.1.15,2013-07-24 14:52:00,
2013-07-24 07:57:00,87.0,71.9,29.80,West,260,2.0,2.0,61,0.00,,,0.00,Wunderground v.1.15,2013-07-24 14:57:00,
2013-07-24 08:02:00,87.3,72.2,29.80,West,278,0.0,2.0,61,0.00,,,0.00,Wunderground v.1.15,2013-07-24 15:02:00,
2013-07-24 08:07:00,87.7,73.1,29.80,WSW,255,0.0,2.0,62,0.00,,,0.00,Wunderground v.1.15,2013-07-24 15:07:00,
2013-07-24 08:12:00,88.3,73.1,29.80,West,274,0.0,1.0,61,0.00,,,0.00,Wunderground v.1.15,2013-07-24 15:12:00,
2013-07-24 08:17:00,88.9,73.7,29.80,WNW,301,1.0,2.0,61,0.00,,,0.00,Wunderground v.1.15,2013-07-24 15:17:00,
2013-07-24 08:22:00,88.9,74.2,29.80,NW,311,2.0,4.0,62,0.00,,,0.00,Wunderground v.1.15,2013-07-24 15:22:00,
2013-07-24 08:27:00,88.9,73.7,29.80,West,278,2.0,4.0,61,0.00,,,0.00,Wunderground v.1.15,2013-07-24 15:27:00,
2013-07-24 08:32:00,89.1,74.9,29.80,WNW,293,2.0,4.0,63,0.00,,,0.00,Wunderground v.1.15,2013-07-24 15:32:00,
2013-07-24 08:37:00,89.2,75.0,29.80,WNW,285,3.0,4.0,63,0.00,,,0.00,Wunderground v.1.15,2013-07-24 15:37:00,
2013-07-24 08:42:00,89.4,75.1,29.80,NW,305,4.0,4.0,63,0.00,,,0.00,Wunderground v.1.15,2013-07-24 15:42:00,
2013-07-24 08:47:00,89.6,75.8,29.80,WNW,295,3.0,4.0,64,0.00,,,0.00,Wunderground v.1.15,2013-07-24 15:47:00,
2013-07-24 08:52:00,89.9,74.2,29.80,NW,307,2.0,4.0,60,0.00,,,0.00,Wunderground v.1.15,2013-07-24 15:52:00,
2013-07-24 08:57:00,90.1,73.8,29.80,NW,311,3.0,4.0,59,0.00,,,0.00,Wunderground v.1.15,2013-07-24 15:57:00,
2013-07-24 09:02:00,90.2,74.4,29.80,WNW,293,4.0,4.0,60,0.00,,,0.00,Wunderground v.1.15,2013-07-24 16:02:00,
2013-07-24 09:07:00,90.6,74.3,29.80,WSW,239,1.0,4.0,59,0.00,,,0.00,Wunderground v.1.15,2013-07-24 16:07:00,
2013-07-24 09:12:00,90.8,74.5,29.80,West,277,3.0,4.0,59,0.00,,,0.00,Wunderground v.1.15,2013-07-24 16:12:00,
2013-07-24 09:17:00,90.9,74.1,29.80,NW,310,5.0,5.0,58,0.00,,,0.00,Wunderground v.1.15,2013-07-24 16:17:00,
2013-07-24 09:22:00,91.0,74.2,29.80,NW,315,5.0,5.0,58,0.00,,,0.00,Wunderground v.1.15,2013-07-24 16:22:00,
2013-07-24 09:27:00,91.1,72.7,29.80,NW,308,4.0,6.0,55,0.00,,,0.00,Wunderground v.1.15,2013-07-24 16:27:00,
2013-07-24 09:32:00,91.3,73.4,29.80,West,276,3.0,4.0,56,0.00,,,0.00,Wunderground v.1.15,2013-07-24 16:32:00,
2013-07-24 09:37:00,91.8,72.8,29.80,West,281,3.0,4.0,54,0.00,,,0.00,Wunderground v.1.15,2013-07-24 16:37:00,
2013-07-24 09:42:00,92.6,72.4,29.81,NW,319,3.0,3.0,52,0.00,,,0.00,Wunderground v.1.15,2013-07-24 16:42:00,
2013-07-24 09:47:00,93.1,72.3,29.81,West,281,2.0,5.0,51,0.00,,,0.00,Wunderground v.1.15,2013-07-24 16:47:00,
2013-07-24 09:52:00,93.8,71.1,29.80,West,267,2.0,3.0,48,0.00,,,0.00,Wunderground v.1.15,2013-07-24 16:52:00,
2013-07-24 09:57:00,94.3,72.2,29.80,WNW,290,3.0,4.0,49,0.00,,,0.00,Wunderground v.1.15,2013-07-24 16:57:00,
2013-07-24 10:02:00,94.3,71.0,29.80,West,265,4.0,5.0,47,0.00,,,0.00,Wunderground v.1.15,2013-07-24 17:02:00,
2013-07-24 10:07:00,94.6,71.2,29.80,West,266,5.0,5.0,47,0.00,,,0.00,Wunderground v.1.15,2013-07-24 17:07:00,
2013-07-24 10:12:00,94.7,71.3,29.80,WNW,283,5.0,6.0,47,0.00,,,0.00,Wunderground v.1.15,2013-07-24 17:12:00,
2013-07-24 10:17:00,95.0,69.7,29.80,West,259,3.0,6.0,44,0.00,,,0.00,Wunderground v.1.15,2013-07-24 17:17:00,
2013-07-24 10:22:00,95.5,70.1,29.80,West,280,4.0,5.0,44,0.00,,,0.00,Wunderground v.1.15,2013-07-24 17:22:00,
2013-07-24 10:27:00,95.9,67.7,29.80,WSW,243,4.0,8.0,40,0.00,,,0.00,Wunderground v.1.15,2013-07-24 17:27:00,
2013-07-24 10:32:00,96.1,70.7,29.80,WSW,257,8.0,8.0,44,0.00,,,0.00,Wunderground v.1.15,2013-07-24 17:32:00,
2013-07-24 10:37:00,96.0,65.5,29.79,West,270,4.0,8.0,37,0.00,,,0.00,Wunderground v.1.15,2013-07-24 17:37:00,
2013-07-24 10:42:00,96.5,68.9,29.79,West,276,3.0,6.0,41,0.00,,,0.00,Wunderground v.1.15,2013-07-24 17:42:00,
2013-07-24 10:47:00,97.0,67.2,29.79,West,260,4.0,7.0,38,0.00,,,0.00,Wunderground v.1.15,2013-07-24 17:47:00,
2013-07-24 10:52:00,97.2,67.4,29.79,WSW,240,7.0,7.0,38,0.00,,,0.00,Wunderground v.1.15,2013-07-24 17:52:00,
2013-07-24 10:57:00,97.3,70.4,29.79,West,274,5.0,8.0,42,0.00,,,0.00,Wunderground v.1.15,2013-07-24 17:57:00,
2013-07-24 11:02:00,97.0,70.1,29.79,West,277,2.0,6.0,42,0.00,,,0.00,Wunderground v.1.15,2013-07-24 18:02:00,
2013-07-24 11:07:00,97.2,66.6,29.78,WNW,283,6.0,9.0,37,0.00,,,0.00,Wunderground v.1.15,2013-07-24 18:07:00,
2013-07-24 11:12:00,98.1,67.4,29.79,WSW,255,5.0,5.0,37,0.00,,,0.00,Wunderground v.1.15,2013-07-24 18:12:00,
2013-07-24 11:17:00,98.5,65.3,29.78,WSW,252,3.0,7.0,34,0.00,,,0.00,Wunderground v.1.15,2013-07-24 18:17:00,
2013-07-24 11:23:00,98.8,63.8,29.78,WSW,253,4.0,7.0,32,0.00,,,0.00,Wunderground v.1.15,2013-07-24 18:23:00,
2013-07-24 11:28:00,99.0,69.0,29.78,West,276,6.0,7.0,38,0.00,,,0.00,Wunderground v.1.15,2013-07-24 18:28:00,
2013-07-24 11:33:00,98.7,70.2,29.78,West,269,2.0,6.0,40,0.00,,,0.00,Wunderground v.1.15,2013-07-24 18:33:00,
2013-07-24 11:38:00,98.9,65.6,29.78,WSW,248,2.0,6.0,34,0.00,,,0.00,Wunderground v.1.15,2013-07-24 18:38:00,
2013-07-24 11:43:00,99.2,69.1,29.78,West,274,3.0,4.0,38,0.00,,,0.00,Wunderground v.1.15,2013-07-24 18:43:00,
2013-07-24 11:48:00,99.4,72.3,29.78,WNW,283,5.0,5.0,42,0.00,,,0.00,Wunderground v.1.15,2013-07-24 18:48:00,
2013-07-24 11:53:00,99.3,71.4,29.78,West,274,3.0,5.0,41,0.00,,,0.00,Wunderground v.1.15,2013-07-24 18:53:00,
2013-07-24 11:58:00,99.4,70.1,29.78,NW,304,2.0,6.0,39,0.00,,,0.00,Wunderground v.1.15,2013-07-24 18:58:00,
2013-07-24 12:03:00,99.4,70.8,29.78,West,267,3.0,5.0,40,0.00,,,0.00,Wunderground v.1.15,2013-07-24 19:03:00,
2013-07-24 12:08:00,99.6,69.5,29.78,WNW,293,2.0,5.0,38,0.00,,,0.00,Wunderground v.1.15,2013-07-24 19:08:00,
2013-07-24 12:13:00,100.0,71.3,29.78,NW,309,3.0,6.0,40,0.00,,,0.00,Wunderground v.1.15,2013-07-24 19:13:00,
2013-07-24 12:18:00,99.9,72.7,29.77,WNW,290,3.0,6.0,42,0.00,,,0.00,Wunderground v.1.15,2013-07-24 19:18:00,
2013-07-24 12:23:00,100.4,66.1,29.77,West,266,3.0,5.0,33,0.00,,,0.00,Wunderground v.1.15,2013-07-24 19:23:00,
2013-07-24 12:28:00,100.9,72.9,29.77,WNW,283,4.0,5.0,41,0.00,,,0.00,Wunderground v.1.15,2013-07-24 19:28:00,
2013-07-24 12:33:00,100.7,69.7,29.77,WNW,290,5.0,5.0,37,0.00,,,0.00,Wunderground v.1.15,2013-07-24 19:33:00,
2013-07-24 12:38:00,100.6,70.4,29.77,NW,319,4.0,5.0,38,0.00,,,0.00,Wunderground v.1.15,2013-07-24 19:38:00,
2013-07-24 12:43:00,100.8,69.8,29.76,West,281,4.0,5.0,37,0.00,,,0.00,Wunderground v.1.15,2013-07-24 19:43:00,
2013-07-24 12:48:00,100.8,67.3,29.76,NW,304,2.0,5.0,34,0.00,,,0.00,Wunderground v.1.15,2013-07-24 19:48:00,
2013-07-24 12:53:00,101.5,71.2,29.76,WNW,293,3.0,5.0,38,0.00,,,0.00,Wunderground v.1.15,2013-07-24 19:53:00,
2013-07-24 12:58:00,101.5,74.1,29.76,WNW,291,3.0,5.0,42,0.00,,,0.00,Wunderground v.1.15,2013-07-24 19:58:00,
2013-07-24 13:03:00,101.8,67.3,29.76,WNW,297,6.0,8.0,33,0.00,,,0.00,Wunderground v.1.15,2013-07-24 20:03:00,
2013-07-24 13:08:00,101.9,67.4,29.75,West,274,6.0,8.0,33,0.00,,,0.00,Wunderground v.1.15,2013-07-24 20:08:00,
2013-07-24 13:13:00,102.2,71.0,29.75,West,281,4.0,6.0,37,0.00,,,0.00,Wunderground v.1.15,2013-07-24 20:13:00,
2013-07-24 13:18:00,102.6,67.1,29.75,West,260,8.0,10.0,32,0.00,,,0.00,Wunderground v.1.15,2013-07-24 20:18:00,
2013-07-24 13:23:00,102.9,70.0,29.75,West,260,5.0,8.0,35,0.00,,,0.00,Wunderground v.1.15,2013-07-24 20:23:00,
2013-07-24 13:28:00,102.5,69.6,29.74,WSW,256,4.0,10.0,35,0.00,,,0.00,Wunderground v.1.15,2013-07-24 20:28:00,
2013-07-24 13:33:00,102.8,69.0,29.74,West,271,2.0,8.0,34,0.00,,,0.00,Wunderground v.1.15,2013-07-24 20:33:00,
2013-07-24 13:38:00,102.9,68.3,29.74,West,263,7.0,8.0,33,0.00,,,0.00,Wunderground v.1.15,2013-07-24 20:38:00,
2013-07-24 13:43:00,102.8,70.7,29.74,WSW,257,6.0,7.0,36,0.00,,,0.00,Wunderground v.1.15,2013-07-24 20:43:00,
2013-07-24 13:48:00,102.6,71.3,29.74,West,269,5.0,9.0,37,0.00,,,0.00,Wunderground v.1.15,2013-07-24 20:48:00,
2013-07-24 13:53:00,103.1,67.5,29.73,West,274,6.0,8.0,32,0.00,,,0.00,Wunderground v.1.15,2013-07-24 20:53:00,
2013-07-24 13:58:00,103.1,74.1,29.73,West,260,7.0,9.0,40,0.00,,,0.00,Wunderground v.1.15,2013-07-24 20:58:00,
2013-07-24 14:03:00,103.2,65.8,29.73,WNW,287,5.0,7.0,30,0.00,,,0.00,Wunderground v.1.15,2013-07-24 21:03:00,
2013-07-24 14:08:00,103.9,67.3,29.73,West,277,4.0,7.0,31,0.00,,,0.00,Wunderground v.1.15,2013-07-24 21:08:00,
2013-07-24 14:13:00,104.0,68.3,29.72,West,278,8.0,8.0,32,0.00,,,0.00,Wunderground v.1.15,2013-07-24 21:13:00,
2013-07-24 14:18:00,103.4,65.9,29.72,West,260,4.0,8.0,30,0.00,,,0.00,Wunderground v.1.15,2013-07-24 21:18:00,
2013-07-24 14:23:00,104.1,71.0,29.72,WSW,256,6.0,8.0,35,0.00,,,0.00,Wunderground v.1.15,2013-07-24 21:23:00,
2013-07-24 14:28:00,104.0,67.4,29.72,West,268,3.0,11.0,31,0.00,,,0.00,Wunderground v.1.15,2013-07-24 21:28:00,
2013-07-24 14:33:00,104.2,67.6,29.71,West,270,3.0,8.0,31,0.00,,,0.00,Wunderground v.1.15,2013-07-24 21:33:00,
2013-07-24 14:38:00,104.3,63.7,29.71,WNW,295,3.0,9.0,27,0.00,,,0.00,Wunderground v.1.15,2013-07-24 21:38:00,
2013-07-24 14:43:00,104.9,63.1,29.71,West,270,3.0,8.0,26,0.00,,,0.00,Wunderground v.1.15,2013-07-24 21:43:00,
2013-07-24 14:48:00,105.1,64.3,29.70,West,276,7.0,8.0,27,0.00,,,0.00,Wunderground v.1.15,2013-07-24 21:48:00,
2013-07-24 14:53:00,104.9,72.6,29.70,WNW,286,4.0,8.0,36,0.00,,,0.00,Wunderground v.1.15,2013-07-24 21:53:00,
2013-07-24 14:59:00,104.3,72.0,29.70,West,262,5.0,8.0,36,0.00,,,0.00,Wunderground v.1.15,2013-07-24 21:59:00,
2013-07-24 15:04:00,104.4,67.7,29.70,West,269,6.0,8.0,31,0.00,,,0.00,Wunderground v.1.15,2013-07-24 22:04:00,
2013-07-24 15:09:00,104.7,65.0,29.70,West,275,3.0,9.0,28,0.00,,,0.00,Wunderground v.1.15,2013-07-24 22:09:00,
2013-07-24 15:14:00,104.8,69.9,29.69,West,260,3.0,5.0,33,0.00,,,0.00,Wunderground v.1.15,2013-07-24 22:14:00,
2013-07-24 15:19:00,104.4,65.8,29.69,West,270,5.0,9.0,29,0.00,,,0.00,Wunderground v.1.15,2013-07-24 22:19:00,
2013-07-24 15:24:00,104.9,70.9,29.69,West,273,3.0,6.0,34,0.00,,,0.00,Wunderground v.1.15,2013-07-24 22:24:00,
2013-07-24 15:29:00,104.8,69.9,29.69,West,269,2.0,6.0,33,0.00,,,0.00,Wunderground v.1.15,2013-07-24 22:29:00,
2013-07-24 15:34:00,105.4,63.5,29.69,WSW,255,8.0,11.0,26,0.00,,,0.00,Wunderground v.1.15,2013-07-24 22:34:00,
2013-07-24 15:39:00,105.3,65.6,29.68,West,260,6.0,11.0,28,0.00,,,0.00,Wunderground v.1.15,2013-07-24 22:39:00,
2013-07-24 15:44:00,106.1,63.0,29.68,West,267,7.0,11.0,25,0.00,,,0.00,Wunderground v.1.15,2013-07-24 22:44:00,
2013-07-24 15:49:00,105.9,69.0,29.68,WNW,284,4.0,11.0,31,0.00,,,0.00,Wunderground v.1.15,2013-07-24 22:49:00,
2013-07-24 15:54:00,105.3,63.4,29.68,West,275,3.0,9.0,26,0.00,,,0.00,Wunderground v.1.15,2013-07-24 22:54:00,
2013-07-24 15:59:00,105.3,63.4,29.67,West,264,4.0,9.0,26,0.00,,,0.00,Wunderground v.1.15,2013-07-24 22:59:00,
2013-07-24 16:04:00,105.3,68.5,29.67,West,263,5.0,7.0,31,0.00,,,0.00,Wunderground v.1.15,2013-07-24 23:04:00,
2013-07-24 16:09:00,105.4,63.5,29.67,WSW,243,6.0,7.0,26,0.00,,,0.00,Wunderground v.1.15,2013-07-24 23:09:00,
2013-07-24 16:14:00,105.4,65.6,29.67,West,269,7.0,8.0,28,0.00,,,0.00,Wunderground v.1.15,2013-07-24 23:14:00,
2013-07-24 16:19:00,105.2,65.5,29.67,WSW,252,5.0,8.0,28,0.00,,,0.00,Wunderground v.1.15,2013-07-24 23:19:00,
2013-07-24 16:24:00,104.9,67.2,29.67,West,267,4.0,8.0,30,0.00,,,0.00,Wunderground v.1.15,2013-07-24 23:24:00,
2013-07-24 16:29:00,105.3,64.5,29.66,WSW,258,5.0,8.0,27,0.00,,,0.00,Wunderground v.1.15,2013-07-24 23:29:00,
2013-07-24 16:34:00,105.6,66.8,29.66,West,273,3.0,7.0,29,0.00,,,0.00,Wunderground v.1.15,2013-07-24 23:34:00,
2013-07-24 16:39:00,105.3,67.6,29.66,WNW,284,4.0,7.0,30,0.00,,,0.00,Wunderground v.1.15,2013-07-24 23:39:00,
2013-07-24 16:44:00,105.3,69.4,29.66,WNW,285,6.0,8.0,32,0.00,,,0.00,Wunderground v.1.15,2013-07-24 23:44:00,
2013-07-24 16:49:00,105.2,65.5,29.66,West,274,3.0,8.0,28,0.00,,,0.00,Wunderground v.1.15,2013-07-24 23:49:00,
2013-07-24 16:54:00,105.2,67.5,29.66,WNW,294,3.0,5.0,30,0.00,,,0.00,Wunderground v.1.15,2013-07-24 23:54:00,
2013-07-24 16:59:00,105.5,67.7,29.66,West,270,3.0,6.0,30,0.00,,,0.00,Wunderground v.1.15,2013-07-24 23:59:00,
2013-07-24 17:04:00,106.1,63.0,29.65,WSW,252,2.0,6.0,25,0.00,,,0.00,Wunderground v.1.15,2013-07-25 00:04:00,
2013-07-24 17:09:00,107.4,64.1,29.65,West,264,2.0,6.0,25,0.00,,,0.00,Wunderground v.1.15,2013-07-25 00:09:00,
2013-07-24 17:14:00,108.7,64.0,29.65,SE,134,2.0,3.0,24,0.00,,,0.00,Wunderground v.1.15,2013-07-25 00:14:00,
2013-07-24 17:19:00,107.9,64.5,29.65,West,263,5.0,6.0,25,0.00,,,0.00,Wunderground v.1.15,2013-07-25 00:19:00,
2013-07-24 17:24:00,107.5,63.0,29.64,West,274,0.0,4.0,24,0.00,,,0.00,Wunderground v.1.15,2013-07-25 00:24:00,
2013-07-24 17:29:00,108.1,63.5,29.64,SSE,155,0.0,4.0,24,0.00,,,0.00,Wunderground v.1.15,2013-07-25 00:29:00,
2013-07-24 17:34:00,108.5,63.8,29.64,SSE,156,1.0,4.0,24,0.00,,,0.00,Wunderground v.1.15,2013-07-25 00:34:00,
2013-07-24 17:39:00,108.2,67.0,29.64,West,276,3.0,5.0,27,0.00,,,0.00,Wunderground v.1.15,2013-07-25 00:39:00,
2013-07-24 17:44:00,106.8,63.6,29.64,West,269,6.0,6.0,25,0.00,,,0.00,Wunderground v.1.15,2013-07-25 00:44:00,
2013-07-24 17:49:00,106.9,64.8,29.64,West,260,3.0,6.0,26,0.00,,,0.00,Wunderground v.1.15,2013-07-25 00:49:00,
2013-07-24 17:54:00,106.5,64.4,29.64,West,269,1.0,7.0,26,0.00,,,0.00,Wunderground v.1.15,2013-07-25 00:54:00,
2013-07-24 17:59:00,106.7,65.7,29.64,West,263,3.0,7.0,27,0.00,,,0.00,Wunderground v.1.15,2013-07-25 00:59:00,
2013-07-24 18:04:00,106.5,65.5,29.64,West,263,3.0,6.0,27,0.00,,,0.00,Wunderground v.1.15,2013-07-25 01:04:00,
2013-07-24 18:09:00,105.7,66.9,29.64,WNW,283,2.0,6.0,29,0.00,,,0.00,Wunderground v.1.15,2013-07-25 01:09:00,
2013-07-24 18:14:00,105.6,66.8,29.64,WSW,252,2.0,4.0,29,0.00,,,0.00,Wunderground v.1.15,2013-07-25 01:14:00,
2013-07-24 18:19:00,105.9,67.1,29.64,West,264,4.0,6.0,29,0.00,,,0.00,Wunderground v.1.15,2013-07-25 01:19:00,
2013-07-24 18:24:00,106.7,64.6,29.64,SW,232,3.0,4.0,26,0.00,,,0.00,Wunderground v.1.15,2013-07-25 01:24:00,
2013-07-24 18:29:00,107.4,62.9,29.64,WSW,250,3.0,5.0,24,0.00,,,0.00,Wunderground v.1.15,2013-07-25 01:29:00,
2013-07-24 18:35:00,107.4,62.9,29.64,WSW,240,6.0,8.0,24,0.00,,,0.00,Wunderground v.1.15,2013-07-25 01:35:00,
2013-07-24 18:40:00,107.4,62.9,29.64,SW,231,2.0,3.0,24,0.00,,,0.00,Wunderground v.1.15,2013-07-25 01:40:00,
2013-07-24 18:45:00,107.6,64.2,29.64,WSW,249,4.0,6.0,25,0.00,,,0.00,Wunderground v.1.15,2013-07-25 01:45:00,
2013-07-24 18:50:00,107.1,62.7,29.64,West,260,2.0,3.0,24,0.00,,,0.00,Wunderground v.1.15,2013-07-25 01:50:00,
2013-07-24 18:55:00,106.8,63.6,29.64,WSW,242,3.0,7.0,25,0.00,,,0.00,Wunderground v.1.15,2013-07-25 01:55:00,
2013-07-24 19:00:00,106.5,64.4,29.64,SW,236,4.0,4.0,26,0.00,,,0.00,Wunderground v.1.15,2013-07-25 02:00:00,
2013-07-24 19:05:00,106.1,65.2,29.64,SW,228,4.0,8.0,27,0.00,,,0.00,Wunderground v.1.15,2013-07-25 02:05:00,
2013-07-24 19:10:00,105.6,65.8,29.64,WSW,250,4.0,4.0,28,0.00,,,0.00,Wunderground v.1.15,2013-07-25 02:10:00,
2013-07-24 19:15:00,105.1,65.4,29.64,WSW,249,1.0,7.0,28,0.00,,,0.00,Wunderground v.1.15,2013-07-25 02:15:00,
2013-07-24 19:20:00,104.5,64.9,29.65,WSW,249,3.0,6.0,28,0.00,,,0.00,Wunderground v.1.15,2013-07-25 02:20:00,
2013-07-24 19:25:00,104.0,65.5,29.65,West,261,0.0,6.0,29,0.00,,,0.00,Wunderground v.1.15,2013-07-25 02:25:00,
2013-07-24 19:30:00,103.6,65.1,29.65,West,274,1.0,2.0,29,0.00,,,0.00,Wunderground v.1.15,2013-07-25 02:30:00,
2013-07-24 19:35:00,103.3,64.9,29.65,South,183,0.0,3.0,29,0.00,,,0.00,Wunderground v.1.15,2013-07-25 02:35:00,
2013-07-24 19:40:00,102.9,64.5,29.65,North,352,0.0,2.0,29,0.00,,,0.00,Wunderground v.1.15,2013-07-25 02:40:00,
2013-07-24 19:45:00,102.3,64.0,29.65,SSE,149,0.0,5.0,29,0.00,,,0.00,Wunderground v.1.15,2013-07-25 02:45:00,
2013-07-24 19:50:00,102.0,64.7,29.65,West,271,1.0,2.0,30,0.00,,,0.00,Wunderground v.1.15,2013-07-25 02:50:00,
2013-07-24 19:56:00,101.7,64.5,29.65,SSW,208,0.0,4.0,30,0.00,,,0.00,Wunderground v.1.15,2013-07-25 02:56:00,
2013-07-24 20:01:00,101.4,65.1,29.65,WSW,239,1.0,5.0,31,0.00,,,0.00,Wunderground v.1.15,2013-07-25 03:01:00,
2013-07-24 20:06:00,101.0,65.7,29.65,SSW,198,1.0,7.0,32,0.00,,,0.00,Wunderground v.1.15,2013-07-25 03:06:00,
2013-07-24 20:11:00,100.6,65.4,29.65,SE,127,1.0,2.0,32,0.00,,,0.00,Wunderground v.1.15,2013-07-25 03:11:00,
2013-07-24 20:16:00,100.5,65.3,29.66,SE,131,1.0,3.0,32,0.00,,,0.00,Wunderground v.1.15,2013-07-25 03:16:00,
2013-07-24 20:21:00,100.4,65.2,29.66,ESE,113,0.0,3.0,32,0.00,,,0.00,Wunderground v.1.15,2013-07-25 03:21:00,
2013-07-24 20:26:00,100.3,65.1,29.66,SSE,150,2.0,3.0,32,0.00,,,0.00,Wunderground v.1.15,2013-07-25 03:26:00,
2013-07-24 20:31:00,100.3,65.1,29.66,SW,228,0.0,1.0,32,0.00,,,0.00,Wunderground v.1.15,2013-07-25 03:31:00,
2013-07-24 20:36:00,100.2,65.9,29.67,NNW,333,0.0,2.0,33,0.00,,,0.00,Wunderground v.1.15,2013-07-25 03:36:00,
2013-07-24 20:42:00,100.1,64.9,29.67,SE,125,1.0,2.0,32,0.00,,,0.00,Wunderground v.1.15,2013-07-25 03:42:00,
2013-07-24 20:47:00,100.2,65.0,29.67,SSE,151,0.0,3.0,32,0.00,,,0.00,Wunderground v.1.15,2013-07-25 03:47:00,
2013-07-24 20:52:00,100.3,65.1,29.68,NNW,328,0.0,1.0,32,0.00,,,0.00,Wunderground v.1.15,2013-07-25 03:52:00,
2013-07-24 20:57:00,100.2,65.0,29.68,NE,43,0.0,2.0,32,0.00,,,0.00,Wunderground v.1.15,2013-07-25 03:57:00,
2013-07-24 21:01:00,100.2,65.0,29.68,West,274,1.0,1.0,32,0.00,,,0.00,Wunderground v.1.15,2013-07-25 04:01:00,
2013-07-24 21:06:00,100.1,64.9,29.69,WSW,239,0.0,4.0,32,0.00,,,0.00,Wunderground v.1.15,2013-07-25 04:06:00,
2013-07-24 21:11:00,100.0,64.9,29.69,NW,304,0.0,1.0,32,0.00,,,0.00,Wunderground v.1.15,2013-07-25 04:11:00,
2013-07-24 21:16:00,99.9,65.6,29.69,WNW,293,0.0,2.0,33,0.00,,,0.00,Wunderground v.1.15,2013-07-25 04:16:00,
2013-07-24 21:22:00,99.9,65.6,29.69,WNW,294,1.0,1.0,33,0.00,,,0.00,Wunderground v.1.15,2013-07-25 04:22:00,
2013-07-24 21:27:00,99.9,64.8,29.70,SSW,197,1.0,3.0,32,0.00,,,0.00,Wunderground v.1.15,2013-07-25 04:27:00,
2013-07-24 21:32:00,99.8,65.6,29.70,WSW,251,1.0,1.0,33,0.00,,,0.00,Wunderground v.1.15,2013-07-25 04:32:00,
2013-07-24 21:37:00,99.7,65.5,29.70,NNW,335,0.0,2.0,33,0.00,,,0.00,Wunderground v.1.15,2013-07-25 04:37:00,
2013-07-24 21:42:00,99.6,65.4,29.70,NW,309,0.0,2.0,33,0.00,,,0.00,Wunderground v.1.15,2013-07-25 04:42:00,
2013-07-24 21:47:00,99.7,65.5,29.70,WNW,290,0.0,3.0,33,0.00,,,0.00,Wunderground v.1.15,2013-07-25 04:47:00,
2013-07-24 21:52:00,99.7,65.5,29.71,NE,39,1.0,2.0,33,0.00,,,0.00,Wunderground v.1.15,2013-07-25 04:52:00,
2013-07-24 21:57:00,99.8,65.6,29.71,NNW,342,0.0,4.0,33,0.00,,,0.00,Wunderground v.1.15,2013-07-25 04:57:00,
2013-07-24 22:02:00,100.0,65.7,29.71,ESE,114,1.0,3.0,33,0.00,,,0.00,Wunderground v.1.15,2013-07-25 05:02:00,
2013-07-24 22:07:00,100.0,65.7,29.70,East,98,1.0,5.0,33,0.00,,,0.00,Wunderground v.1.15,2013-07-25 05:07:00,
2013-07-24 22:12:00,99.8,65.6,29.71,WSW,240,0.0,2.0,33,0.00,,,0.00,Wunderground v.1.15,2013-07-25 05:12:00,
2013-07-24 22:17:00,99.5,66.2,29.71,SSW,195,0.0,3.0,34,0.00,,,0.00,Wunderground v.1.15,2013-07-25 05:17:00,
2013-07-24 22:22:00,99.2,65.9,29.71,SE,146,1.0,2.0,34,0.00,,,0.00,Wunderground v.1.15,2013-07-25 05:22:00,
2013-07-24 22:27:00,99.0,66.6,29.71,SW,224,0.0,2.0,35,0.00,,,0.00,Wunderground v.1.15,2013-07-25 05:27:00,
2013-07-24 22:32:00,98.7,66.3,29.71,SE,142,0.0,2.0,35,0.00,,,0.00,Wunderground v.1.15,2013-07-25 05:32:00,
2013-07-24 22:37:00,98.5,66.1,29.71,NW,311,0.0,2.0,35,0.00,,,0.00,Wunderground v.1.15,2013-07-25 05:37:00,
2013-07-24 22:42:00,98.5,66.1,29.71,NW,319,0.0,2.0,35,0.00,,,0.00,Wunderground v.1.15,2013-07-25 05:42:00,
2013-07-24 22:47:00,98.6,65.4,29.71,West,276,0.0,2.0,34,0.00,,,0.00,Wunderground v.1.15,2013-07-25 05:47:00,
2013-07-24 22:52:00,98.6,65.4,29.71,WSW,257,0.0,3.0,34,0.00,,,0.00,Wunderground v.1.15,2013-07-25 05:52:00,
2013-07-24 22:57:00,98.7,65.5,29.71,NNW,333,1.0,3.0,34,0.00,,,0.00,Wunderground v.1.15,2013-07-25 05:57:00,
2013-07-24 23:02:00,98.4,66.9,29.72,SW,221,7.0,10.0,36,0.00,,,0.00,Wunderground v.1.15,2013-07-25 06:02:00,
2013-07-24 23:07:00,96.3,68.1,29.72,SW,221,5.0,13.0,40,0.00,,,0.00,Wunderground v.1.15,2013-07-25 06:07:00,
2013-07-24 23:13:00,95.2,67.8,29.72,SSW,203,5.0,8.0,41,0.00,,,0.00,Wunderground v.1.15,2013-07-25 06:13:00,
2013-07-24 23:18:00,95.0,68.3,29.72,WNW,294,2.0,12.0,42,0.00,,,0.00,Wunderground v.1.15,2013-07-25 06:18:00,
2013-07-24 23:23:00,95.0,67.6,29.72,WSW,240,4.0,8.0,41,0.00,,,0.00,Wunderground v.1.15,2013-07-25 06:23:00,
2013-07-24 23:28:00,94.9,67.5,29.72,SSW,212,2.0,8.0,41,0.00,,,0.00,Wunderground v.1.15,2013-07-25 06:28:00,
2013-07-24 23:33:00,94.7,67.3,29.72,ESE,110,2.0,9.0,41,0.00,,,0.00,Wunderground v.1.15,2013-07-25 06:33:00,
2013-07-24 23:38:00,94.6,68.0,29.72,South,179,4.0,13.0,42,0.00,,,0.00,Wunderground v.1.15,2013-07-25 06:38:00,
2013-07-24 23:43:00,94.4,67.8,29.72,WSW,246,5.0,9.0,42,0.00,,,0.00,Wunderground v.1.15,2013-07-25 06:43:00,
2013-07-24 23:48:00,94.1,67.5,29.72,SW,233,4.0,10.0,42,0.00,,,0.00,Wunderground v.1.15,2013-07-25 06:48:00,
2013-07-24 23:53:00,93.9,68.0,29.72,SE,139,1.0,4.0,43,0.00,,,0.00,Wunderground v.1.15,2013-07-25 06:53:00,
2013-07-24 23:58:00,93.7,67.1,29.73,West,262,1.0,5.0,42,0.00,,,0.00,Wunderground v.1.15,2013-07-25 06:58:00,